TimeMST,TemperatureF,Dew PointF,Humidity,Sea Level PressureIn,VisibilityMPH,Wind Direction,Wind SpeedMPH,Gust SpeedMPH,PrecipitationIn,Events,Conditions,WindDirDegrees,DateUTC
12:56 AM,12.9,7.0,77,29.72,-9999.0,West,8.1,-,N/A,,Unknown,280,2013-11-17 07:56:00
1:56 AM,12.9,7.0,77,29.74,-9999.0,West,9.2,17.3,N/A,,Unknown,270,2013-11-17 08:56:00
2:56 AM,10.0,6.1,84,29.80,-9999.0,Variable,4.6,-,N/A,,Unknown,0,2013-11-17 09:56:00
3:56 AM,10.9,7.0,84,29.83,-9999.0,Variable,3.5,-,N/A,,Unknown,0,2013-11-17 10:56:00
4:56 AM,8.1,6.1,92,29.88,-9999.0,Calm,Calm,-,N/A,,Unknown,0,2013-11-17 11:56:00
5:56 AM,8.1,5.0,87,29.92,-9999.0,Calm,Calm,-,N/A,,Unknown,0,2013-11-17 12:56:00
6:56 AM,12.9,9.0,84,29.93,-9999.0,Calm,Calm,-,N/A,,Unknown,0,2013-11-17 13:56:00
7:56 AM,15.1,10.0,80,29.96,-9999.0,Variable,5.8,-,N/A,,Unknown,0,2013-11-17 14:56:00
8:56 AM,16.0,12.0,84,29.98,-9999.0,Variable,4.6,-,N/A,,Unknown,0,2013-11-17 15:56:00
9:56 AM,19.0,14.0,81,29.99,-9999.0,Variable,6.9,18.4,N/A,,Unknown,0,2013-11-17 16:56:00
10:56 AM,21.0,15.1,78,30.02,-9999.0,West,12.7,25.3,N/A,,Unknown,260,2013-11-17 17:56:00
11:56 AM,21.0,15.1,78,30.06,-9999.0,WSW,10.4,20.7,N/A,,Unknown,250,2013-11-17 18:56:00
12:56 PM,23.0,15.1,72,30.07,-9999.0,West,11.5,23.0,N/A,,Unknown,260,2013-11-17 19:56:00
1:56 PM,21.0,14.0,74,30.10,-9999.0,Variable,5.8,-,N/A,,Unknown,0,2013-11-17 20:56:00
2:56 PM,21.0,16.0,81,30.14,-9999.0,West,4.6,-,N/A,,Unknown,260,2013-11-17 21:56:00
3:56 PM,21.9,17.1,82,30.15,-9999.0,West,8.1,-,N/A,,Unknown,270,2013-11-17 22:56:00
4:56 PM,21.9,17.1,82,30.18,-9999.0,West,9.2,-,N/A,,Unknown,260,2013-11-17 23:56:00
5:56 PM,21.9,16.0,78,30.21,-9999.0,Variable,6.9,-,N/A,,Unknown,0,2013-11-18 00:56:00
6:56 PM,23.0,17.1,78,30.17,-9999.0,Variable,5.8,17.3,N/A,,Unknown,0,2013-11-18 01:56:00
7:56 PM,23.0,17.1,78,30.18,-9999.0,West,10.4,19.6,N/A,,Unknown,270,2013-11-18 02:56:00
8:56 PM,24.1,18.0,77,30.16,-9999.0,West,8.1,19.6,N/A,,Unknown,260,2013-11-18 03:56:00
9:56 PM,24.1,18.0,77,30.15,-9999.0,West,8.1,-,N/A,,Unknown,260,2013-11-18 04:56:00
10:56 PM,25.0,19.0,78,30.15,-9999.0,West,9.2,-,N/A,,Unknown,270,2013-11-18 05:56:00
11:56 PM,26.1,19.9,78,30.17,-9999.0,Variable,3.5,-,N/A,,Unknown,0,2013-11-18 06:56:00